Date String (YYYY-MM-DD hh:mm:ss) UTC,Instrument flags,Ambient pressure (hPa),Sample flow (lpm),Bypass flow (lpm),Sample temperature (°C),Ambient temperature (°C),ASC tube jacket temperature (°C),LED temperature (°C),Box temperature (°C),Sample RH (%),Span deviation,Mass concentration (μg/m³),Mass concentration (μg/m³),Mass concentration (μg/m³)
DateTimeUTC,F1_M11,P_M11,Q1_M11,Q2_M11,T1_M11,T2_M11,T3_M11,T4_M11,T5_M11,U1_M11,ZSPAN_M11,X0_M11,X2_M11,X1_M11
2022-11-15 11:00:00,,0830.5,4.99,0.00,21.8,20.0,00.0,30.8,23.6,14.6,0000.0,0005.45,0002.20,0001.86
2022-11-15 11:01:00,,0830.5,5.00,0.00,21.8,20.1,00.0,30.8,23.6,14.6,0000.0,0005.51,0002.22,0001.86
2022-11-15 11:02:00,,0830.5,5.00,0.00,21.8,20.0,00.0,30.8,23.6,14.6,0000.0,0005.42,0002.16,0001.87
2022-11-15 11:03:00,,0830.5,5.00,0.00,21.8,20.0,00.0,30.8,23.6,14.7,0000.0,0005.49,0002.20,0001.88
2022-11-15 11:04:00,,0830.5,5.00,0.00,21.8,20.2,00.0,30.7,23.5,14.7,0000.0,0004.22,0002.23,0001.89
2022-11-15 11:05:00,,0830.6,5.02,0.00,21.8,21.2,00.0,30.7,23.7,14.6,0000.0,0003.63,0002.22,0001.90
2022-11-15 11:06:00,,0830.5,4.99,0.00,21.9,21.9,00.0,30.7,23.9,14.6,0000.0,0003.10,0002.21,0001.91
2022-11-15 11:07:00,,0830.5,4.99,0.00,22.0,21.7,00.0,30.8,24.0,14.5,0000.0,0003.12,0002.22,0001.93
2022-11-15 11:08:00,,0830.5,5.01,0.00,22.0,21.3,00.0,30.8,23.9,14.5,0000.0,0003.18,0002.24,0001.95
2022-11-15 11:09:00,,0830.5,5.00,0.00,22.0,21.0,00.0,30.8,23.8,14.5,0000.0,0003.20,0002.24,0001.94
2022-11-15 11:10:00,,0830.5,4.99,0.00,21.9,20.8,00.0,30.8,23.8,14.5,0000.0,0003.17,0002.22,0001.94
2022-11-15 11:11:00,,0830.5,5.00,0.00,21.9,20.7,00.0,30.8,23.8,14.5,0000.0,0003.10,0002.19,0001.93
2022-11-15 11:12:00,,0830.5,5.00,0.00,21.9,20.5,00.0,30.8,23.8,14.5,0000.0,0002.97,0002.15,0001.92
2022-11-15 11:13:00,,0830.6,5.00,0.00,21.9,20.4,00.0,30.8,23.7,14.6,0000.0,0003.01,0002.19,0001.92
2022-11-15 11:14:00,,0830.6,5.01,0.00,21.9,20.4,00.0,30.8,23.7,14.6,0000.0,0002.96,0002.17,0001.91
2022-11-15 11:15:00,,0830.6,5.00,0.00,21.9,20.3,00.0,30.8,23.7,14.6,0000.0,0002.86,0002.14,0001.91
2022-11-15 11:16:00,,0830.6,5.00,0.00,21.9,20.2,00.0,30.8,23.7,14.6,0000.0,0002.87,0002.14,0001.90
2022-11-15 11:17:00,,0830.6,5.00,0.00,21.9,20.2,00.0,30.8,23.6,14.7,0000.0,0002.90,0002.13,0001.89
2022-11-15 11:18:00,,0830.6,5.00,0.00,21.8,20.1,00.0,30.8,23.6,14.7,0000.0,0002.92,0002.14,0001.88
2022-11-15 11:19:00,,0830.6,4.99,0.00,21.8,20.1,00.0,30.8,23.6,14.7,0000.0,0002.87,0002.14,0001.87
2022-11-15 11:20:00,,0830.6,4.99,0.00,21.8,20.1,00.0,30.8,23.6,14.7,0000.0,0002.81,0002.11,0001.85
2022-11-15 11:21:00,,0830.6,5.00,0.00,21.8,20.1,00.0,30.8,23.6,14.7,0000.0,0002.80,0002.11,0001.85
2022-11-15 11:22:00,,0830.6,5.00,0.00,21.8,20.1,00.0,30.8,23.6,14.7,0000.0,0002.72,0002.08,0001.85
2022-11-15 11:23:00,,0830.6,5.00,0.00,21.8,20.1,00.0,30.8,23.6,14.8,0000.0,0002.76,0002.09,0001.84
2022-11-15 11:24:00,,0830.6,5.00,0.00,21.8,20.2,00.0,30.7,23.6,14.8,0000.0,0002.72,0002.06,0001.84
2022-11-15 11:25:00,,0830.6,5.01,0.00,21.8,21.0,00.0,30.7,23.7,14.7,0000.0,0002.66,0002.03,0001.84
2022-11-15 11:26:00,,0830.6,4.98,0.00,21.9,21.9,00.0,30.7,23.9,14.7,0000.0,0002.65,0002.02,0001.84
2022-11-15 11:27:00,,0830.6,5.00,0.00,22.0,21.9,00.0,30.7,24.0,14.6,0000.0,0002.84,0002.06,0001.84
2022-11-15 11:28:00,,0830.6,5.00,0.00,22.0,21.5,00.0,30.8,23.9,14.6,0000.0,0002.85,0002.07,0001.84
2022-11-15 11:29:00,,0830.6,5.00,0.00,22.0,21.1,00.0,30.8,23.9,14.6,0000.0,0002.79,0002.05,0001.84
2022-11-15 11:30:00,,0830.6,5.00,0.00,21.9,20.7,00.0,30.8,23.8,14.6,0000.0,0002.79,0002.03,0001.83
2022-11-15 11:31:00,,0830.6,5.00,0.00,21.9,20.4,00.0,30.8,23.7,14.7,0000.0,0002.87,0002.06,0001.83
2022-11-15 11:32:00,,0830.7,5.00,0.00,21.9,20.2,00.0,30.8,23.6,14.7,0000.0,0002.94,0002.08,0001.83
2022-11-15 11:33:00,,0830.7,5.01,0.00,21.8,20.1,00.0,30.8,23.6,14.7,0000.0,0003.06,0002.12,0001.83
2022-11-15 11:34:00,,0830.7,5.01,0.00,21.8,20.1,00.0,30.8,23.6,14.7,0000.0,0003.12,0002.15,0001.86
2022-11-15 11:35:00,,0830.8,5.00,0.00,21.8,20.0,00.0,30.8,23.5,14.8,0000.0,0003.14,0002.16,0001.87
2022-11-15 11:36:00,,0830.7,4.99,0.00,21.7,19.9,00.0,30.8,23.5,14.8,0000.0,0003.31,0002.18,0001.87
2022-11-15 11:37:00,,0830.8,5.00,0.00,21.7,19.9,00.0,30.8,23.5,14.8,0000.0,0003.37,0002.18,0001.87
2022-11-15 11:38:00,,0830.8,5.00,0.00,21.7,19.9,00.0,30.7,23.5,14.9,0000.0,0003.20,0002.14,0001.87
2022-11-15 11:39:00,,0830.8,4.99,0.00,21.7,19.9,00.0,30.7,23.5,14.9,0000.0,0003.08,0002.11,0001.87
2022-11-15 11:40:00,,0830.7,5.00,0.00,21.7,19.9,00.0,30.7,23.5,14.9,0000.0,0003.12,0002.13,0001.87
2022-11-15 11:41:00,,0830.8,5.02,0.00,21.7,20.4,00.0,30.7,23.5,14.9,0000.0,0003.11,0002.13,0001.88
2022-11-15 11:42:00,,0830.7,4.99,0.00,21.8,21.4,00.0,30.6,23.7,14.8,0000.0,0003.04,0002.12,0001.89
2022-11-15 11:43:00,,0830.7,4.99,0.00,21.9,22.0,00.0,30.6,23.9,14.7,0000.0,0003.01,0002.13,0001.91
2022-11-15 11:44:00,,0830.8,5.00,0.00,21.9,21.7,00.0,30.7,23.9,14.7,0000.0,0002.96,0002.14,0001.93
2022-11-15 11:45:00,,0830.8,5.00,0.00,21.9,21.3,00.0,30.7,23.8,14.7,0000.0,0002.85,0002.13,0001.93
2022-11-15 11:46:00,,0830.9,5.00,0.00,21.9,21.0,00.0,30.8,23.8,14.7,0000.0,0002.89,0002.13,0001.94
2022-11-15 11:47:00,,0830.8,5.00,0.00,21.9,20.8,00.0,30.8,23.8,14.7,0000.0,0002.79,0002.13,0001.95
2022-11-15 11:48:00,,0830.9,5.01,0.00,21.9,20.6,00.0,30.8,23.7,14.7,0000.0,0002.77,0002.18,0001.97
2022-11-15 11:49:00,,0830.9,5.01,0.00,21.9,20.5,00.0,30.8,23.7,14.7,0000.0,0002.92,0002.27,0002.03
2022-11-15 11:50:00,,0830.9,5.00,0.00,21.8,20.3,00.0,30.8,23.6,14.7,0000.0,0002.97,0002.31,0002.07
2022-11-15 11:51:00,,0830.9,5.00,0.00,21.8,20.2,00.0,30.8,23.6,14.7,0000.0,0002.97,0002.34,0002.12
2022-11-15 11:52:00,,0830.9,5.00,0.00,21.8,20.2,00.0,30.8,23.6,14.7,0000.0,0003.19,0002.43,0002.18
2022-11-15 11:53:00,,0830.9,5.00,0.00,21.8,20.1,00.0,30.8,23.6,14.8,0000.0,0003.33,0002.50,0002.24
2022-11-15 11:54:00,,0830.9,5.00,0.00,21.8,20.1,00.0,30.7,23.5,14.8,0000.0,0003.52,0002.55,0002.29
2022-11-15 11:55:00,,0830.9,4.99,0.00,21.7,20.0,00.0,30.7,23.5,14.8,0000.0,0003.60,0002.58,0002.32
2022-11-15 11:56:00,,0830.9,5.00,0.00,21.7,20.0,00.0,30.7,23.5,14.8,0000.0,0003.69,0002.64,0002.37
2022-11-15 11:57:00,,0831.0,5.00,0.00,21.7,20.0,00.0,30.7,23.5,14.8,0000.0,0003.78,0002.73,0002.45
2022-11-15 11:58:00,,0831.0,5.00,0.00,21.7,19.9,00.0,30.7,23.4,14.8,0000.0,0003.98,0002.91,0002.62
2022-11-15 11:59:00,,0831.0,4.99,0.00,21.7,19.9,00.0,30.7,23.4,14.9,0000.0,0004.81,0003.11,0002.86
